Location: ?????????
(54.7630°N, 39.4991°E)
Time: 11:12:14
(UTC+00:00)

Cosmos 2360 - Pass Details

Date: 14 April 2026
Orbit: 846 x 856 km, 70.7° (Epoch: 10 May)

Event Time Altitude Azimuth Distance (km) Brightness Sun altitude
Rises 20:45:11 0° 325° (NW) 3,422 8.4 -25.1°
Reaches altitude 10° 20:47:40 10° 329° (NNW) 2,483 7.5 -25.2°
Maximum altitude 20:53:21 65° 51° (NE) 933 4.4 -25.3°
Enters shadow 20:54:46 48° 109° (ESE) 1,095 4.5 -25.3°
